Location: Pardubice
(50.0330°N, 15.7830°E)
Time: 09:32:06
(UTC+02:00)

Vanguard 3 - All Passes

Search period start: 07 October 2024 00:00
Search period end: 17 October 2024 00:00
Orbit: 507 x 3224 km, 33.3° (Epoch: 06 October)

Date Brightness Start Highest point End Pass type
(mag) Time Alt. Az. Time Alt. Az. Time Alt. Az.
07 Oct - 00:55:47 10° S 01:00:16 16° SE 01:06:07 10° ESE visible
07 Oct - 03:02:41 10° SW 03:10:34 33° SSE 03:22:52 10° ESE visible
07 Oct - 05:12:31 10° WSW 05:22:40 35° S 05:37:33 10° SE visible
07 Oct - 07:24:48 10° WSW 07:35:30 24° SSW 07:48:46 10° SSE daylight
08 Oct - 01:45:20 10° SSW 01:51:24 24° SSE 02:00:21 10° ESE visible
08 Oct - 03:53:56 10° WSW 04:02:31 35° S 04:15:49 10° ESE visible
08 Oct - 06:04:44 10° WSW 06:14:58 30° SSW 06:29:04 10° SSE visible
08 Oct - 08:19:43 10° WSW 08:27:35 15° SW 08:36:30 10° S daylight
09 Oct - 00:29:22 10° S 00:32:50 14° SE 00:37:09 10° ESE visible
09 Oct - 02:35:58 10° SW 02:42:55 30° SSE 02:53:42 10° ESE visible
09 Oct - 04:45:37 10° WSW 04:54:39 32° S 05:08:09 10° SE visible
09 Oct - 06:57:49 10° WSW 07:07:12 22° SSW 07:19:08 10° SSE daylight
10 Oct - 01:18:44 10° SSW 01:23:55 22° SSE 01:31:24 10° ESE visible
10 Oct - 03:27:11 10° SW 03:34:45 32° S 03:46:31 10° ESE visible
10 Oct - 05:37:50 10° WSW 05:46:52 27° SSW 05:59:29 10° SSE visible
10 Oct - 07:53:19 10° WSW 07:59:17 13° SW 08:06:01 10° SSW daylight
11 Oct - 00:03:10 10° SSE 00:05:29 12° SE 00:08:10 10° SE night (unlit)
11 Oct - 02:09:19 10° SW 02:15:22 27° SSE 02:24:36 10° ESE visible
11 Oct - 04:18:51 10° WSW 04:26:47 29° S 04:38:40 10° SE visible
11 Oct - 06:31:03 10° WSW 06:39:03 19° SSW 06:49:12 10° S visible
12 Oct - 00:52:11 10° SSW 00:56:32 19° SSE 01:02:32 10° ESE visible
12 Oct - 03:00:30 10° SW 03:07:06 28° S 03:17:14 10° SE visible
12 Oct - 05:11:06 10° WSW 05:18:53 23° SSW 05:29:47 10° SSE visible
12 Oct - 07:28:10 10° SW 07:31:06 11° SW 07:34:15 10° SSW daylight
13 Oct - 01:42:43 10° SW 01:47:55 24° SSE 01:55:35 10° ESE visible
13 Oct - 03:52:10 10° WSW 03:59:02 25° S 04:09:10 10° SE visible
13 Oct - 06:04:36 10° WSW 06:11:00 16° SSW 06:19:00 10° S visible
14 Oct - 00:25:41 10° SSW 00:29:12 16° SSE 00:33:47 10° ESE night (unlit)
14 Oct - 02:33:54 10° SW 02:39:34 25° S 02:48:00 10° SE visible
14 Oct - 04:44:31 10° WSW 04:51:03 20° SSW 04:59:58 10° SSE visible
15 Oct - 01:16:11 10° SW 01:20:32 20° SSE 01:26:41 10° SE visible
15 Oct - 03:25:36 10° SW 03:31:23 22° S 03:39:41 10° SE visible
15 Oct - 05:38:39 10° SW 05:43:05 13° SSW 05:48:20 10° S visible
15 Oct - 23:59:17 10° S 00:01:55 14° SSE 00:05:06 10° SE night (unlit)
16 Oct - 02:07:21 10° SW 02:12:06 21° S 02:18:52 10° SE visible
16 Oct - 04:18:10 10° SW 04:23:19 16° SSW 04:30:02 10° SSE visible
